sat.trackr.live / text

‹ back to catalog

LEMUR-2-DELOITTE-2

NORAD 68491 · 2026-067CD

PAYLOAD ACTIVE UNKNOWN

§ Identity

Operator
Country
US
Launch date
2026-03-30
Launch site
AFWTR
Launch vehicle
Mass (kg)
RCS (m²)

External: N2YO · Heavens-Above · Gunter

§ Orbital elements

Epoch: 2026-05-24T20:38:40.968960Z

Period
96.56 min
Inclination
97.7552°
Eccentricity
0.0004535
Mean motion
14.91308255 rev/d
Perigee alt
590.7 km
Apogee alt
597.0 km
Semi-major
6,972.0 km
B*
1.9716e-4
RAAN
103.4092°
Arg perigee
114.1438°
Mean anomaly
246.0255°
Rev number
824

§ Raw data

LEMUR-2-DELOITTE-21 68491U 26067CD  26144.86019640  .00001909  00000+0  19716-3 0  99952 68491  97.7552 103.4092 0004535 114.1438 246.0255 14.91308255  8249

JSON: /api/v1/satellites/68491 · /tle

For live sub-satellite position, see the globe view (requires WebGL).

§ Visibility from observer

Set your observer location to see the next 7 days of passes ≥ 10°. The values pass through the URL so the page stays shareable.

No JS? Fill the form by hand. The geolocation button needs JavaScript.